sat.trackr.live / text

‹ back to catalog

STARLINK-33581

NORAD 62784 · 2025-015AC

PAYLOAD ACTIVE UNKNOWN

§ Identity

Operator
Country
US
Launch date
2025-01-21
Launch site
AFWTR
Launch vehicle
Mass (kg)
RCS (m²)

Purposes: comms

External: N2YO · Heavens-Above · Gunter

§ Orbital elements

Epoch: 2026-05-24T15:49:34.986144Z

Period
94.01 min
Inclination
53.1606°
Eccentricity
0.0000827
Mean motion
15.31711043 rev/d
Perigee alt
470.1 km
Apogee alt
471.3 km
Semi-major
6,848.8 km
B*
5.3063e-4
RAAN
329.4914°
Arg perigee
95.0137°
Mean anomaly
265.0959°
Rev number
7,611

§ Raw data

STARLINK-335811 62784U 25015AC  26144.65943271  .00016142  00000+0  53063-3 0  99972 62784  53.1606 329.4914 0000827  95.0137 265.0959 15.31711043 76111

JSON: /api/v1/satellites/62784 · /tle

For live sub-satellite position, see the globe view (requires WebGL).

§ Visibility from observer

Set your observer location to see the next 7 days of passes ≥ 10°. The values pass through the URL so the page stays shareable.

No JS? Fill the form by hand. The geolocation button needs JavaScript.